User: anonymous   Login
Location: Oshawa
(43.9000°N, 78.8670°W)
Time: 15:03:37
(UTC-05:00)
Language:

Cosmos 1500 - Orbit

View from above orbital plane
View from above orbital plane
View from above satellite
View from above satellite

Ground track
Ground track

The orbit data is extracted from the following two-line orbital elements,

1 14372U 83099A   15064.15428384  .00005687  00000-0  31207-3 0  9999
2 14372 082.5134 087.0980 0019352 102.9923 334.1825 15.13798343711278
Epoch (UTC): 05 March 2015 03:42:10
Eccentricity: 0.0019352
inclination: 82.5134°
perigee height: 511 km
apogee height: 538 km
right ascension of ascending node: 87.0980°
argument of perigee: 102.9923°
revolutions per day: 15.13798343
mean anomaly at epoch: 334.1825°
orbit number at epoch: 71127

The dashed part of the orbit path shows where the satellite is in the earth's shadow,  

DLR